#timestamp,LO_Frequency,Hit,StdDev 
1625529615.1,286046998.6,N
1625529635.9,286046998.7,N
1625529655.7,286046998.1,N
1625529675.5,286046999.1,N
1625529695.4,286047001.2,N
1625529715.2,286047001.2,N
1625529735.0,286047001.1,N
1625529735.9,286047001.1,N
1625529755.8,286046999.3,N
1625529775.6,286047001.1,N
1625529795.5,286046998.7,N
1625529815.3,286046998.6,N
1625529835.1,286046998.8,N
1625529855.9,286046998.6,N
1625529875.7,286047000.4,N
1625529895.5,286047001.0,N
1625529915.4,286046998.5,N
1625529935.2,286046998.5,N
1625529955.0,286046999.4,N
1625529956.0,286046999.4,N
1625529975.8,286046999.1,N
1625529995.6,286046999.6,N
1625530015.5,286046998.5,N
1625530035.3,286047000.4,N
1625530055.1,286047000.9,N
1625530075.9,286047000.0,N
1625530095.7,286047001.2,N
1625530115.6,286046998.3,N
1625530135.4,286047000.7,N
1625530155.2,286046999.8,N
1625530175.1,286047000.1,N
1625530176.0,286047000.1,N
1625530195.8,286047002.4,N
1625530215.6,286047000.2,N
1625530235.5,286047002.1,N
1625530255.3,286047002.4,N
1625530275.2,286047002.2,N
1625530295.9,286047002.5,N
1625530315.7,286047001.6,N
1625530335.6,286047000.3,N
1625530355.4,286047002.4,N
1625530375.2,286047001.0,N
1625530395.1,286047002.4,N
1625530396.0,286047002.4,N
1625530415.8,286047002.5,N
1625530435.7,286047000.1,N
1625530455.5,286047000.7,N
1625530475.3,286047000.4,N
1625530495.2,286047000.2,N
1625530515.0,286046999.8,N
1625530515.9,286046999.8,N
1625530535.7,286046999.7,N
1625530555.6,286047001.9,N
1625530575.4,286047001.9,N
1625530595.3,286047000.1,N
1625530615.1,286047002.5,N
1625530616.0,286047002.5,N
1625530635.8,286046999.7,N
1625530655.7,286046999.8,N
1625530675.5,286046998.3,N
1625530695.4,286046998.7,N
1625530715.2,286046998.9,N
1625530735.0,286046998.2,N
1625530735.9,286046998.2,N
1625530755.8,286047001.0,N
1625530775.6,286047000.9,N
1625530795.4,286046998.7,N
1625530815.3,286046998.8,N
1625530835.1,286046999.4,N
1625530855.9,286046998.9,N
1625530875.7,286046998.6,N
1625530895.5,286046998.8,N
1625530915.4,286046997.1,N
1625530935.2,286046997.0,N
1625530955.0,286046997.4,N
1625530955.9,286046997.4,N
1625530975.8,286046997.5,N
1625530995.6,286046996.7,N
1625531015.5,286046996.5,N
1625531035.3,286046997.8,N
1625531055.1,286046996.8,N
1625531075.9,286046999.1,N
1625531095.7,286046996.6,N
1625531115.5,286046997.0,N
1625531135.4,286046996.8,N
1625531155.2,286046999.6,N
1625531175.1,286046996.9,N
1625531176.0,286046996.9,N
1625531195.8,286046998.4,N
1625531215.6,286047001.2,N
1625531235.5,286046998.3,N
1625531255.3,286046998.9,N
1625531275.1,286046999.0,N
1625531295.9,286046998.9,N
1625531315.7,286046998.2,N
1625531335.6,286046998.9,N
1625531355.4,286046998.9,N
1625531375.2,286046998.2,N
1625531395.1,286047001.2,N
1625531396.0,286047001.2,N
1625531415.8,286047001.2,N
1625531435.6,286046998.6,N
1625531455.5,286046998.5,N
1625531475.3,286046999.4,N
1625531495.2,286046998.7,N
1625531515.9,286047000.0,N
1625531535.7,286047000.4,N
1625531555.6,286047000.8,N
1625531575.4,286046998.3,N
1625531595.2,286046996.9,N
1625531615.1,286046997.5,N
1625531616.0,286046997.5,N
1625531635.8,286046997.1,N
1625531655.7,286046997.4,N
1625531675.5,286046997.9,N
1625531695.3,286046997.4,N
1625531715.2,286046997.3,N
1625531735.0,286046996.6,N
1625531735.9,286046996.6,N
1625531755.7,286046996.8,N
1625531775.6,286046997.2,N
1625531795.4,286046997.9,N
1625531815.3,286046997.5,N
1625531835.1,286046996.7,N
1625531836.0,286046996.7,N
1625531855.8,286046996.5,N
1625531875.7,286046999.0,N
1625531895.5,286046998.9,N
1625531915.3,286046998.8,N
1625531935.2,286046999.0,N
1625531955.0,286046999.6,N
1625531955.9,286046999.6,N
1625531975.8,286046996.6,N
1625531995.6,286046997.8,N
1625532015.4,286046997.5,N
1625532035.3,286046997.5,N
1625532055.1,286046997.1,N
1625532075.8,286046997.2,N
1625532095.7,286046997.9,N
1625532115.5,286046997.2,Y
1625532135.4,286047001.2,P
1625532155.2,286047000.9,N
1625532175.0,286046998.2,N
1625532175.9,286046998.2,N
1625532195.8,286046998.1,N
1625532215.6,286047001.2,N
1625532235.4,286047000.0,N
1625532255.3,286046999.9,N
1625532275.1,286047000.4,N
1625532295.9,286046999.8,N
1625532315.7,286047002.8,N
1625532335.5,286047002.0,N
1625532355.4,286047002.8,N
1625532375.2,286046999.7,N
1625532395.0,286046999.8,N
1625532395.9,286046999.8,N
1625532415.8,286047002.8,N
1625532435.6,286047000.2,N
1625532455.5,286047000.1,N
1625532475.3,286047002.6,N
1625532495.1,286047002.3,N
1625532515.9,286047002.3,N
1625532535.7,286046999.7,N
1625532555.5,286047002.8,N
1625532575.4,286046999.8,N
1625532595.2,286047000.1,N
1625532615.1,286047000.0,N
1625532616.0,286047000.0,N
1625532635.8,286047001.1,N
1625532655.6,286047001.0,N
1625532675.5,286047000.0,N
1625532695.3,286047000.0,N
1625532715.1,286047000.0,N
1625532735.9,286047002.8,N
1625532755.7,286047000.1,N
1625532775.6,286047000.5,N
1625532795.4,286047000.1,N
1625532815.2,286047000.0,N
1625532835.1,286047000.4,N
1625532836.0,286047000.4,N
1625532855.8,286047002.7,N
1625532875.6,286046999.7,N
1625532895.5,286046999.7,N
1625532915.3,286046999.9,N
1625532935.2,286047000.4,N
1625532955.9,286047000.7,N
1625532975.7,286047000.6,N
1625532995.6,286047002.4,N
1625533015.4,286047001.6,N
1625533035.2,286047001.9,N
1625533055.1,286047002.7,N
1625533056.0,286047002.7,N
1625533075.8,286046999.8,N
1625533095.7,286047000.2,N
1625533115.5,286047002.5,N
1625533135.3,286046999.7,N
1625533155.2,286047000.1,N
1625533175.0,286047002.3,N
1625533175.9,286047002.3,N
1625533195.8,286047002.3,N
